| time (UTC) | temp C | wind direction | speed KPH | gust KPH | rain 1hr cm | rain 24hr cm | rain mn cm | humidity % | barometer mb |
| 20260504215026 | 20 | 17 | 1.6 | 3.2 | 0.00 | 0.00 | 0.00 | 36 | 1001.1 |
| 20260504214522 | 20 | 5 | 3.2 | 14.5 | 0.00 | 0.00 | 0.00 | 37 | 1001.2 |
| 20260504214018 | 20 | 13 | 3.2 | 8.0 | 0.00 | 0.00 | 0.00 | 37 | 1001.3 |
| 20260504213515 | 20 | 321 | 12.9 | 16.1 | 0.00 | 0.00 | 0.00 | 38 | 1001.2 |
| 20260504213012 | 20 | 52 | 3.2 | 11.3 | 0.00 | 0.00 | 0.00 | 39 | 1001.1 |
| 20260504212508 | 20 | 335 | 3.2 | 9.7 | 0.00 | 0.00 | 0.00 | 38 | 1001.2 |
| 20260504212006 | 19 | 35 | 6.4 | 9.7 | 0.00 | 0.00 | 0.00 | 39 | 1001.2 |
| 20260504211502 | 20 | 75 | 6.4 | 11.3 | 0.00 | 0.00 | 0.00 | 39 | 1001.2 |
| 20260504211000 | 20 | 33 | 1.6 | 4.8 | 0.00 | 0.00 | 0.00 | 40 | 1001.1 |
| 20260504210456 | 20 | 57 | 1.6 | 4.8 | 0.00 | 0.00 | 0.00 | 42 | 1001.3 |
| 20260504205953 | 20 | 41 | 1.6 | 4.8 | 0.00 | 0.00 | 0.00 | 42 | 1001.4 |
| 20260504205450 | 20 | 0 | 3.2 | 3.2 | 0.00 | 0.00 | 0.00 | 42 | 1001.2 |
| 20260504204949 | 20 | 235 | 3.2 | 8.0 | 0.00 | 0.00 | 0.00 | 40 | 1001.3 |
| 20260504204447 | 21 | 261 | 4.8 | 9.7 | 0.00 | 0.00 | 0.00 | 40 | 1001.4 |
| 20260504203945 | 20 | 94 | 3.2 | 3.2 | 0.00 | 0.00 | 0.00 | 41 | 1001.1 |
| 20260504203443 | 20 | 39 | 1.6 | 12.9 | 0.00 | 0.00 | 0.00 | 42 | 1001.3 |
| 20260504202939 | 20 | 279 | 6.4 | 9.7 | 0.00 | 0.00 | 0.00 | 40 | 1001.2 |
| 20260504202435 | 20 | 31 | 3.2 | 11.3 | 0.00 | 0.00 | 0.00 | 41 | 1001.3 |
| 20260504201932 | 19 | 29 | 4.8 | 14.5 | 0.00 | 0.00 | 0.00 | 43 | 1001.4 |
| 20260504201430 | 19 | 12 | 4.8 | 8.0 | 0.00 | 0.00 | 0.00 | 44 | 1001.3 |
| 20260504200927 | 19 | 279 | 6.4 | 9.7 | 0.00 | 0.00 | 0.00 | 42 | 1001.4 |
| 20260504200424 | 19 | 320 | 4.8 | 11.3 | 0.00 | 0.00 | 0.00 | 44 | 1001.4 |
| 20260504195920 | 19 | 311 | 6.4 | 9.7 | 0.00 | 0.00 | 0.00 | 43 | 1001.3 |
| 20260504195416 | 18 | 355 | 0.0 | 16.1 | 0.00 | 0.00 | 0.00 | 44 | 1001.3 |
| 20260504194913 | 19 | 13 | 1.6 | 8.0 | 0.00 | 0.00 | 0.00 | 44 | 1001.5 |
| 20260504194409 | 20 | 83 | 4.8 | 11.3 | 0.00 | 0.00 | 0.00 | 44 | 1001.5 |
| 20260504193905 | 20 | 310 | 3.2 | 8.0 | 0.00 | 0.00 | 0.00 | 43 | 1001.6 |
| 20260504193403 | 19 | 38 | 1.6 | 11.3 | 0.00 | 0.00 | 0.00 | 45 | 1001.6 |
| 20260504192901 | 19 | 112 | 8.0 | 16.1 | 0.00 | 0.00 | 0.00 | 43 | 1001.7 |
| 20260504192358 | 19 | 52 | 3.2 | 8.0 | 0.00 | 0.00 | 0.00 | 45 | 1002.0 |
| 20260504191856 | 18 | 15 | 0.0 | 16.1 | 0.00 | 0.00 | 0.00 | 46 | 1001.9 |
| 20260504191354 | 18 | 21 | 1.6 | 11.3 | 0.00 | 0.00 | 0.00 | 46 | 1002.0 |
| 20260504190849 | 18 | 19 | 1.6 | 3.2 | 0.00 | 0.00 | 0.00 | 47 | 1001.9 |
| 20260504190345 | 18 | 8 | 3.2 | 12.9 | 0.00 | 0.00 | 0.00 | 47 | 1002.4 |
| 20260504185842 | 18 | 11 | 3.2 | 9.7 | 0.00 | 0.00 | 0.00 | 47 | 1002.1 |
| 20260504185339 | 18 | 17 | 6.4 | 8.0 | 0.00 | 0.00 | 0.00 | 46 | 1002.1 |
| 20260504184835 | 18 | 237 | 4.8 | 9.7 | 0.00 | 0.00 | 0.00 | 47 | 1002.1 |
| 20260504184331 | 17 | 161 | 4.8 | 8.0 | 0.00 | 0.00 | 0.00 | 47 | 1002.2 |
| 20260504183827 | 17 | 341 | 4.8 | 9.7 | 0.00 | 0.00 | 0.00 | 49 | 1002.2 |
| 20260504183325 | 18 | 260 | 6.4 | 12.9 | 0.00 | 0.00 | 0.00 | 48 | 1002.2 |
| 20260504182822 | 17 | 206 | 9.7 | 12.9 | 0.00 | 0.00 | 0.00 | 50 | 1002.3 |
| 20260504182320 | 17 | 309 | 3.2 | 4.8 | 0.00 | 0.00 | 0.00 | 51 | 1002.4 |
| 20260504181816 | 16 | 17 | 1.6 | 3.2 | 0.00 | 0.00 | 0.00 | 53 | 1002.5 |
| 20260504181314 | 16 | 27 | 3.2 | 3.2 | 0.00 | 0.00 | 0.00 | 53 | 1002.6 |
| 20260504180813 | 16 | 15 | 4.8 | 8.0 | 0.00 | 0.00 | 0.00 | 53 | 1002.4 |
| 20260504180311 | 16 | 17 | 4.8 | 8.0 | 0.00 | 0.00 | 0.00 | 55 | 1002.8 |
| 20260504175809 | 15 | 26 | 3.2 | 8.0 | 0.00 | 0.00 | 0.00 | 57 | 1002.7 |
| 20260504175305 | 15 | 45 | 1.6 | 3.2 | 0.00 | 0.00 | 0.00 | 59 | 1002.6 |
| 20260504174804 | 15 | 26 | 1.6 | 4.8 | 0.00 | 0.00 | 0.00 | 58 | 1002.9 |
| 20260504174301 | 15 | 9 | 3.2 | 3.2 | 0.00 | 0.00 | 0.00 | 58 | 1002.9 |
| 20260504173757 | 15 | 35 | 1.6 | 3.2 | 0.00 | 0.00 | 0.00 | 58 | 1002.8 |
| 20260504173254 | 15 | 39 | 3.2 | 9.7 | 0.00 | 0.00 | 0.00 | 58 | 1002.9 |
| 20260504172751 | 15 | 354 | 6.4 | 9.7 | 0.00 | 0.00 | 0.00 | 58 | 1003.0 |
| 20260504172247 | 15 | 26 | 8.0 | 9.7 | 0.00 | 0.00 | 0.00 | 55 | 1002.8 |
| 20260504171743 | 15 | 19 | 3.2 | 4.8 | 0.00 | 0.00 | 0.00 | 55 | 1002.7 |
| 20260504171241 | 16 | 32 | 9.7 | 12.9 | 0.00 | 0.00 | 0.00 | 55 | 1002.8 |
| 20260504170738 | 15 | 17 | 11.3 | 16.1 | 0.00 | 0.00 | 0.00 | 55 | 1002.8 |
| 20260504170235 | 15 | 33 | 3.2 | 12.9 | 0.00 | 0.00 | 0.00 | 56 | 1002.8 |
| 20260504160153 | 16 | 0 | 4.8 | 11.3 | 0.00 | 0.00 | 0.00 | 48 | 1001.9 |
| 20260504151121 | 17 | 60 | 3.2 | 11.3 | 0.00 | 0.00 | 0.00 | 49 | 1002.1 |
| 20260504150618 | 17 | 293 | 4.8 | 8.0 | 0.00 | 0.00 | 0.00 | 50 | 1002.2 |
| 20260504150115 | 16 | 227 | 11.3 | 12.9 | 0.00 | 0.00 | 0.00 | 49 | 1002.0 |
| 20260504141044 | 14 | 21 | 1.6 | 11.3 | 0.00 | 0.00 | 0.00 | 59 | 1003.1 |
| 20260504140540 | 13 | 224 | 3.2 | 9.7 | 0.00 | 0.00 | 0.00 | 59 | 1003.3 |
| 20260504130504 | 12 | 37 | 1.6 | 17.7 | 0.00 | 0.00 | 0.00 | 66 | 1003.8 |
| 20260504110352 | 2 | 15 | 0.0 | 0.0 | 0.00 | 0.00 | 0.00 | 92 | 1004.6 |
| 20260504100309 | 0 | 51 | 0.0 | 0.0 | 0.00 | 0.00 | 0.00 | 94 | 1004.9 |
| 20260504081703 | 0 | 35 | 0.0 | 1.6 | 0.00 | 0.00 | 0.00 | 98 | 1005.1 |
| 20260504081159 | -1 | 4 | 1.6 | 1.6 | 0.00 | 0.00 | 0.00 | 99 | 1005.0 |
| 20260504080655 | -1 | 4 | 1.6 | 1.6 | 0.00 | 0.00 | 0.00 | 99 | 1004.8 |
| 20260504080152 | -1 | 4 | 0.0 | 0.0 | 0.00 | 0.00 | 0.00 | 99 | 1004.9 |
| 20260504070120 | -1 | 4 | 0.0 | 0.0 | 0.00 | 0.00 | 0.00 | 97 | 1004.6 |
| 20260504050508 | -1 | 4 | 0.0 | 1.6 | 0.00 | 0.00 | 0.00 | 95 | 1004.8 |
| 20260504050005 | -1 | 4 | 0.0 | 0.0 | 0.00 | 0.00 | 0.00 | 95 | 1004.7 |
| 20260504045501 | 0 | 4 | 0.0 | 1.6 | 0.00 | 0.00 | 0.00 | 95 | 1004.6 |
| 20260504044957 | 0 | 4 | 0.0 | 1.6 | 0.00 | 0.00 | 0.00 | 95 | 1004.6 |
| 20260504044455 | 0 | 3 | 1.6 | 1.6 | 0.00 | 0.00 | 0.00 | 95 | 1004.8 |
| 20260504043952 | 0 | 3 | 1.6 | 1.6 | 0.00 | 0.00 | 0.00 | 94 | 1004.6 |
| 20260504043449 | 0 | 4 | 0.0 | 0.0 | 0.00 | 0.00 | 0.00 | 94 | 1004.8 |
| 20260504042947 | 0 | 4 | 0.0 | 0.0 | 0.00 | 0.00 | 0.00 | 94 | 1004.7 |
| 20260504042443 | 0 | 4 | 0.0 | 0.0 | 0.00 | 0.00 | 0.00 | 93 | 1004.6 |
| 20260504041940 | 0 | 4 | 0.0 | 0.0 | 0.00 | 0.00 | 0.00 | 93 | 1004.6 |
| 20260504041436 | 0 | 4 | 0.0 | 0.0 | 0.00 | 0.00 | 0.00 | 93 | 1004.6 |
| 20260504040932 | 0 | 4 | 0.0 | 0.0 | 0.00 | 0.00 | 0.00 | 92 | 1004.5 |
| 20260504040430 | 0 | 4 | 0.0 | 0.0 | 0.00 | 0.00 | 0.00 | 92 | 1004.5 |
| 20260504035925 | 0 | 4 | 0.0 | 0.0 | 0.00 | 0.08 | 0.08 | 92 | 1004.5 |
| 20260504035423 | 0 | 4 | 0.0 | 0.0 | 0.00 | 0.08 | 0.08 | 92 | 1004.4 |
| 20260504034920 | 0 | 4 | 0.0 | 0.0 | 0.00 | 0.08 | 0.08 | 91 | 1004.6 |
| 20260504034417 | 0 | 4 | 0.0 | 0.0 | 0.00 | 0.08 | 0.08 | 91 | 1004.3 |
| 20260504033914 | 0 | 4 | 0.0 | 0.0 | 0.00 | 0.08 | 0.08 | 91 | 1004.1 |
| 20260504033411 | 0 | 4 | 0.0 | 0.0 | 0.00 | 0.08 | 0.08 | 90 | 1004.4 |
| 20260504032903 | 0 | 4 | 0.0 | 1.6 | 0.00 | 0.08 | 0.08 | 90 | 1004.6 |
| 20260504032400 | 0 | 4 | 0.0 | 1.6 | 0.00 | 0.08 | 0.08 | 89 | 1004.3 |
| 20260504031856 | 0 | 4 | 0.0 | 0.0 | 0.00 | 0.08 | 0.08 | 89 | 1004.2 |
| 20260504031353 | 1 | 4 | 0.0 | 0.0 | 0.00 | 0.08 | 0.08 | 88 | 1004.3 |
| 20260504030850 | 1 | 4 | 0.0 | 1.6 | 0.00 | 0.08 | 0.08 | 87 | 1004.2 |
| 20260504030348 | 1 | 4 | 0.0 | 0.0 | 0.00 | 0.08 | 0.08 | 88 | 1004.2 |
| 20260504025843 | 1 | 4 | 0.0 | 0.0 | 0.00 | 0.08 | 0.08 | 87 | 1004.4 |
| 20260504025340 | 1 | 4 | 0.0 | 0.0 | 0.00 | 0.08 | 0.08 | 86 | 1004.3 |
| 20260504024837 | 1 | 4 | 0.0 | 0.0 | 0.00 | 0.08 | 0.08 | 86 | 1004.0 |
| 20260504024333 | 2 | 4 | 1.6 | 1.6 | 0.00 | 0.08 | 0.08 | 84 | 1004.3 |
| 20260504023831 | 2 | 4 | 0.0 | 0.0 | 0.00 | 0.08 | 0.08 | 85 | 1004.1 |
| 20260504023327 | 2 | 4 | 0.0 | 1.6 | 0.00 | 0.08 | 0.08 | 85 | 1004.5 |
| 20260504022822 | 2 | 4 | 0.0 | 1.6 | 0.00 | 0.08 | 0.08 | 84 | 1004.5 |
| 20260504022320 | 2 | 4 | 0.0 | 1.6 | 0.00 | 0.08 | 0.08 | 83 | 1004.4 |
| 20260504021816 | 2 | 4 | 0.0 | 0.0 | 0.00 | 0.08 | 0.08 | 82 | 1004.3 |
| 20260504021314 | 2 | 4 | 0.0 | 0.0 | 0.00 | 0.08 | 0.08 | 80 | 1004.1 |
| 20260504020811 | 2 | 4 | 0.0 | 1.6 | 0.00 | 0.08 | 0.08 | 80 | 1004.2 |
| 20260504020308 | 2 | 4 | 0.0 | 1.6 | 0.00 | 0.08 | 0.08 | 79 | 1004.2 |
| 20260504015803 | 2 | 4 | 0.0 | 1.6 | 0.00 | 0.08 | 0.08 | 79 | 1004.2 |
| 20260504015259 | 3 | 4 | 0.0 | 0.0 | 0.00 | 0.08 | 0.08 | 77 | 1004.3 |
| 20260504014755 | 3 | 4 | 0.0 | 1.6 | 0.00 | 0.08 | 0.08 | 74 | 1003.9 |
| 20260504014251 | 3 | 4 | 0.0 | 1.6 | 0.00 | 0.08 | 0.08 | 74 | 1004.2 |
| 20260504013749 | 3 | 4 | 0.0 | 0.0 | 0.00 | 0.08 | 0.08 | 73 | 1004.4 |
| 20260504013247 | 4 | 4 | 0.0 | 1.6 | 0.00 | 0.08 | 0.08 | 73 | 1004.1 |
| 20260504012743 | 4 | 4 | 0.0 | 0.0 | 0.00 | 0.08 | 0.08 | 73 | 1004.3 |
| 20260504012241 | 5 | 4 | 0.0 | 0.0 | 0.00 | 0.08 | 0.08 | 70 | 1004.3 |
| 20260504011738 | 5 | 4 | 0.0 | 0.0 | 0.00 | 0.08 | 0.08 | 67 | 1004.1 |
| 20260504011235 | 5 | 4 | 0.0 | 1.6 | 0.00 | 0.08 | 0.08 | 67 | 1004.0 |
| 20260504010731 | 5 | 4 | 1.6 | 1.6 | 0.00 | 0.08 | 0.08 | 65 | 1004.2 |
| 20260504010226 | 5 | 4 | 0.0 | 1.6 | 0.00 | 0.08 | 0.08 | 67 | 1004.0 |
| 20260504005723 | 5 | 4 | 0.0 | 1.6 | 0.00 | 0.08 | 0.08 | 66 | 1003.8 |
| 20260504005220 | 5 | 4 | 0.0 | 1.6 | 0.00 | 0.08 | 0.08 | 68 | 1003.8 |
| 20260504004718 | 5 | 4 | 1.6 | 3.2 | 0.00 | 0.08 | 0.08 | 68 | 1003.9 |
| 20260504004215 | 5 | 4 | 0.0 | 0.0 | 0.00 | 0.08 | 0.08 | 71 | 1003.6 |
| 20260504003712 | 5 | 4 | 0.0 | 1.6 | 0.00 | 0.08 | 0.08 | 73 | 1003.8 |
| 20260504003208 | 5 | 4 | 1.6 | 1.6 | 0.00 | 0.08 | 0.08 | 71 | 1003.8 |
| 20260504002705 | 5 | 4 | 1.6 | 3.2 | 0.00 | 0.08 | 0.08 | 67 | 1003.7 |
| 20260504002203 | 5 | 4 | 0.0 | 0.0 | 0.00 | 0.08 | 0.08 | 67 | 1003.6 |
| 20260504001701 | 6 | 4 | 0.0 | 1.6 | 0.00 | 0.08 | 0.08 | 65 | 1003.5 |
| 20260504001157 | 6 | 4 | 0.0 | 1.6 | 0.00 | 0.08 | 0.08 | 64 | 1003.6 |
| 20260504000654 | 6 | 4 | 0.0 | 1.6 | 0.00 | 0.08 | 0.08 | 63 | 1003.5 |
| 20260504000151 | 7 | 33 | 1.6 | 1.6 | 0.00 | 0.08 | 0.08 | 62 | 1003.4 |
| 20260503235649 | 7 | 33 | 1.6 | 1.6 | 0.00 | 0.08 | 0.08 | 60 | 1003.4 |
| 20260503235145 | 7 | 33 | 0.0 | 1.6 | 0.00 | 0.08 | 0.08 | 59 | 1003.3 |
| 20260503234644 | 7 | 22 | 0.0 | 1.6 | 0.00 | 0.08 | 0.08 | 59 | 1003.1 |
| 20260503234142 | 7 | 345 | 3.2 | 4.8 | 0.00 | 0.08 | 0.08 | 59 | 1003.2 |
| 20260503233638 | 7 | 60 | 1.6 | 1.6 | 0.00 | 0.08 | 0.08 | 58 | 1003.1 |
| 20260503233134 | 7 | 65 | 3.2 | 4.8 | 0.00 | 0.08 | 0.08 | 58 | 1003.2 |
| 20260503232631 | 8 | 8 | 3.2 | 8.0 | 0.00 | 0.08 | 0.08 | 56 | 1003.0 |
| 20260503232128 | 8 | 45 | 1.6 | 3.2 | 0.00 | 0.08 | 0.08 | 56 | 1003.2 |
| 20260503231626 | 8 | 46 | 1.6 | 4.8 | 0.00 | 0.08 | 0.08 | 55 | 1003.1 |
| 20260503231122 | 8 | 34 | 0.0 | 3.2 | 0.00 | 0.08 | 0.08 | 54 | 1003.1 |
| 20260503230620 | 8 | 36 | 1.6 | 9.7 | 0.00 | 0.08 | 0.08 | 55 | 1003.1 |
| 20260503230117 | 8 | 30 | 1.6 | 8.0 | 0.00 | 0.08 | 0.08 | 54 | 1003.0 |
| 20260503225614 | 8 | 5 | 1.6 | 4.8 | 0.00 | 0.08 | 0.08 | 53 | 1002.9 |
| 20260503225113 | 8 | 38 | 0.0 | 1.6 | 0.00 | 0.08 | 0.08 | 53 | 1002.9 |
| 20260503224611 | 8 | 15 | 1.6 | 3.2 | 0.00 | 0.08 | 0.08 | 53 | 1002.9 |
| 20260503224109 | 8 | 351 | 3.2 | 4.8 | 0.00 | 0.08 | 0.08 | 52 | 1002.8 |
| 20260503223607 | 8 | 53 | 6.4 | 9.7 | 0.00 | 0.08 | 0.08 | 52 | 1002.8 |
| 20260503223102 | 8 | 19 | 3.2 | 14.5 | 0.00 | 0.08 | 0.08 | 51 | 1002.8 |
| 20260503222600 | 8 | 25 | 6.4 | 12.9 | 0.00 | 0.08 | 0.08 | 51 | 1002.6 |
| 20260503222058 | 8 | 23 | 4.8 | 14.5 | 0.00 | 0.08 | 0.08 | 50 | 1003.1 |
| 20260503221556 | 8 | 19 | 3.2 | 4.8 | 0.00 | 0.08 | 0.08 | 50 | 1002.8 |
| 20260503221053 | 8 | 72 | 6.4 | 11.3 | 0.00 | 0.08 | 0.08 | 50 | 1002.9 |
| 20260503220549 | 9 | 28 | 0.0 | 4.8 | 0.00 | 0.08 | 0.08 | 49 | 1002.6 |
| 20260503220047 | 9 | 294 | 3.2 | 4.8 | 0.00 | 0.08 | 0.08 | 49 | 1002.5 |
| 20260503215543 | 9 | 62 | 3.2 | 4.8 | 0.00 | 0.08 | 0.08 | 52 | 1002.6 |